Wellsville, NY

2:49 PM EDT on October 23, 2019 (GMT -0400)
Wellsville Municipal-Tarantine

Weather History for KELZ - August, 2019

Change the Weather History Date:

Monday, August 12, 2019

  Actual Average (WUND) Record (WUND)
Temperature  
Mean Temperature 68 °F -  
Max Temperature 79 °F - - (-1)
Min Temperature 57 °F - - (-1)
Cooling Degree Days 2    
Growing Degree Days 18 (Base 50)    
Moisture  
Dew Point 58 °F    
Average Humidity 71    
Maximum Humidity 87    
Minimum Humidity 52    
Precipitation  
Precipitation 0.00 in - - ()
Sea Level Pressure  
Sea Level Pressure 29.99 in    
Wind  
Wind Speed 4 mph ()    
Max Wind Speed 12 mph    
Max Gust Speed -    
Visibility 10.0 miles    
Events      
Averages and records for this station are not official NWS values.
T = Trace of Precipitation, MM = Missing Value Source: Averaged Metar Reports

Daily Weather History Graph

Daily Weather History Graph

Search for Another Location

Airport or City:

Astronomy

Aug. 12, 2019 Rise Set
Actual Time 6:16 AM EDT 8:17 PM EDT
Civil Twilight 5:45 AM EDT 8:47 PM EDT
Nautical Twilight 5:08 AM EDT 9:24 PM EDT
Astronomical Twilight 4:27 AM EDT 10:05 PM EDT
Moon 6:47 PM EDT (8/12) 3:21 AM EDT (8/12)
Length of Visible Light 15h 01m
Length of Day
14h 00m
Waxing Gibbous, 93% of the Moon is Illuminated
Aug 12
Waxing Gibbous
Aug 15
Full
Aug 23
Last Quarter
Aug 30
New
Sep 5
First Quarter

Hourly Weather History & Observations

Time (EDT) Temp. Dew Point Humidity Pressure Visibility Wind Dir Wind Speed Gust Speed Precip Events Conditions
12:56 AM 60.1 °F 55.0 °F 83% 30.06 in 10.0 mi Calm Calm - N/A   Clear
1:56 AM 57.9 °F 54.0 °F 87% 30.06 in 10.0 mi Calm Calm - N/A   Clear
2:56 AM 60.1 °F 54.0 °F 80% 30.04 in 10.0 mi WSW 4.6 mph - N/A   Clear
3:56 AM 60.1 °F 54.0 °F 80% 30.04 in 10.0 mi SW 6.9 mph - N/A   Partly Cloudy
4:56 AM 60.1 °F 54.0 °F 80% 30.04 in 10.0 mi SW 4.6 mph - N/A   Clear
5:56 AM 60.1 °F 54.0 °F 80% 30.03 in 10.0 mi SW 5.8 mph - N/A   Overcast
6:56 AM 61.0 °F 55.0 °F 81% 30.03 in 10.0 mi WSW 9.2 mph - N/A   Mostly Cloudy
7:56 AM 62.1 °F 55.0 °F 78% 30.03 in 10.0 mi SW 4.6 mph - 0.00 in   Mostly Cloudy
8:56 AM 66.0 °F 57.0 °F 73% 30.04 in 10.0 mi WSW 6.9 mph - N/A   Scattered Clouds
9:56 AM 69.1 °F 59.0 °F 70% 30.03 in 10.0 mi Variable 3.5 mph - N/A   Mostly Cloudy
10:56 AM 70.0 °F 59.0 °F 68% 30.04 in 10.0 mi West 6.9 mph - N/A   Mostly Cloudy
11:56 AM 73.9 °F 60.1 °F 62% 30.02 in 10.0 mi SW 8.1 mph - N/A   Partly Cloudy
12:56 PM 75.9 °F 61.0 °F 60% 29.99 in 10.0 mi Variable 5.8 mph - N/A   Partly Cloudy
1:56 PM 75.0 °F 59.0 °F 57% 29.99 in 10.0 mi Variable 4.6 mph - N/A   Mostly Cloudy
2:56 PM 77.0 °F 59.0 °F 54% 29.96 in 10.0 mi WSW 8.1 mph - N/A   Scattered Clouds
3:56 PM 78.1 °F 59.0 °F 52% 29.94 in 10.0 mi SW 11.5 mph - N/A   Mostly Cloudy
4:56 PM 75.0 °F 59.0 °F 57% 29.93 in 10.0 mi SW 4.6 mph - N/A   Overcast
5:56 PM 75.9 °F 61.0 °F 60% 29.92 in 10.0 mi WSW 4.6 mph - N/A   Mostly Cloudy
6:56 PM 73.9 °F 61.0 °F 64% 29.91 in 10.0 mi WSW 4.6 mph - N/A   Partly Cloudy
7:56 PM 72.0 °F 61.0 °F 68% 29.91 in 10.0 mi WSW 4.6 mph - N/A   Partly Cloudy
8:56 PM 70.0 °F 60.1 °F 71% 29.91 in 10.0 mi WSW 9.2 mph - N/A   Scattered Clouds
9:56 PM 66.9 °F 59.0 °F 76% 29.93 in 10.0 mi Calm Calm - N/A   Clear
10:56 PM 66.0 °F 59.0 °F 78% 29.92 in 10.0 mi SW 4.6 mph - N/A   Clear
11:56 PM 64.9 °F 57.9 °F 78% 29.90 in 10.0 mi SW 4.6 mph - N/A   Clear